This demonstration page uses our WeatherBlox Daily Observations layout. Learn more.

39.01783, -85.05884

Hourly Observations for January 22, 2020

Temp ( °F °C ) Dew Point ( °F °C ) Humidity (%) Winds ( mph kmh ) Pressure ( in mb ) Visibility ( mi km ) Precip ( " mm )
12:52 am 00:52 Mostly Clear 22 -5.6 13 -10.6 68 68 SSE 3 6 30.48 1032 10 16.0934 0 0
1:52 am 01:52 Partly Cloudy 21 -6.1 13 -10.6 71 71 SSE 5 7 30.45 1031 10 16.0934 0 0
2:52 am 02:52 Partly Cloudy 21 -6.1 13 -10.6 71 71 SSW 3 6 30.45 1031 10 16.0934 0 0
3:52 am 03:52 Partly Cloudy 20 -6.7 13 -10.6 74 74 SSE 3 6 30.43 1030 10 16.0934 0 0
4:52 am 04:52 Partly Cloudy 20 -6.7 12 -11.1 71 71 S 5 7 30.42 1030 10 16.0934 0 0
5:52 am 05:52 Mostly Clear 19 -7.2 12 -11.1 74 74 S 5 7 30.42 1030 10 16.0934 0 0
6:52 am 06:52 Partly Cloudy 19 -7.2 12 -11.1 74 74 SSE 6 9 30.42 1030 10 16.0934 0 0
7:52 am 07:52 Partly Cloudy 20 -6.7 12 -11.1 71 71 SSE 9 15 30.4 1030 10 16.0934 0 0
8:52 am 08:52 Mostly Cloudy 23 -5 15 -9.4 72 72 S 6 9 30.4 1030 9 14.48406 0 0
9:52 am 09:52 Mostly Cloudy 27 -2.8 17 -8.3 66 66 SSE 12 19 30.41 1030 10 16.0934 0 0
10:52 am 10:52 Mostly Cloudy 30 -1.1 16 -8.9 56 56 S 10 17 30.42 1030 10 16.0934 0 0
11:52 am 11:52 Cloudy 32 0 16 -8.9 52 52 SSW 6 9 30.42 1030 10 16.0934 0 0
12:52 pm 12:52 Cloudy 33 0.6 16 -8.9 49 49 S 7 11 30.38 1029 10 16.0934 0 0
1:52 pm 13:52 Cloudy 35 1.7 15 -9.4 44 44 SSE 8 13 30.35 1028 10 16.0934 0 0
2:52 pm 14:52 Cloudy 38 3.3 14 -10 37 37 S 7 11 30.32 1027 10 16.0934 0 0
3:52 pm 15:52 Mostly Cloudy 40 4.4 15 -9.4 36 36 SSE 8 13 30.3 1026 10 16.0934 0 0
4:52 pm 16:52 Mostly Cloudy 39 3.9 14 -10 36 36 SE 9 15 30.29 1026 10 16.0934 0 0
5:52 pm 17:52 Cloudy 36 2.2 16 -8.9 44 44 SE 9 15 30.29 1026 10 16.0934 0 0
6:52 pm 18:52 Cloudy 34 1.1 16 -8.9 48 48 SE 7 11 30.28 1026 10 16.0934 0 0
7:52 pm 19:52 Cloudy 34 1.1 17 -8.3 50 50 SSE 6 9 30.28 1026 10 16.0934 0 0
8:52 pm 20:52 Cloudy 35 1.7 17 -8.3 48 48 SSE 3 6 30.28 1025 10 16.0934 0 0
9:52 pm 21:52 Cloudy 33 0.6 16 -8.9 49 49 ESE 6 9 30.27 1025 10 16.0934 0 0
10:52 pm 22:52 Cloudy 33 0.6 17 -8.3 52 52 SSE 5 7 30.26 1025 10 16.0934 0 0
11:52 pm 23:52 Cloudy 32 0 18 -7.8 56 56 SE 6 9 30.25 1024 10 16.0934 0 0

Powered by AerisWeather